Location: Dresden
(51.0483°N, 13.7137°E)
Time: 03:07:41
(UTC+01:00)

Amateur Radio Satellites - All Passes

Search period start: 22 November 2017 02:37
Search period end: 23 November 2017 02:37
Location: Dresden, 51.0483°N, 13.7137°E

Satellite Date Start Highest point End Downlink Frequencies (MHz)
Time Altitude Azimuth
Gurwin Techsat 1B 22 Nov 02:42:50 02:48:06 60° 291° (WNW) 02:53:20 435.225
nSIGHT-1 22 Nov 02:49:07 02:51:39 22° 215° (SW) 02:54:10 .
M-CUBED/EXP-1 PRIME 22 Nov 03:01:55 03:06:22 56° 107° (ESE) 03:10:56 437.505
SO-50 22 Nov 03:11:24 03:14:32 18° 15° (NNE) 03:17:42 436.795
AO-7 22 Nov 03:18:54 03:26:55 48° 100° (E) 03:34:55 .
AO-85 22 Nov 03:24:33 03:26:42 14° 112° (ESE) 03:28:55 145.980
BEESAT 22 Nov 03:27:10 03:31:20 30° 265° (W) 03:35:32 436.000
ISS 22 Nov 03:35:44 03:37:19 13° 222° (SW) 03:38:52 437.550
ITUPSAT 1 22 Nov 03:37:37 03:41:33 25° 267° (W) 03:45:30 437.325
MOZHAYETS 4 22 Nov 03:45:40 03:48:37 17° 271° (W) 03:51:35
BEESAT 2 22 Nov 03:45:56 03:49:52 52° 124° (SE) 03:53:50 435.950
Oscar 19 22 Nov 03:54:03 03:56:56 15° 308° (NW) 03:59:51 437.125/150
KKS-1 22 Nov 03:54:07 03:58:29 54° 70° (ENE) 04:02:54 437.445
YUBILEINY 22 Nov 03:54:23 04:00:38 22° 75° (ENE) 04:06:54 435.215
CUBESAT XI-V 22 Nov 03:56:48 04:01:12 44° 262° (W) 04:05:39 437.345
ITAMSAT 1 22 Nov 04:06:54 04:12:10 80° 105° (ESE) 04:17:22 435.822/435.867
BEESAT 3 22 Nov 04:10:47 04:14:34 39° 320° (NW) 04:18:23 437.485
PCSat 22 Nov 04:15:54 04:19:05 15° 351° (N) 04:22:16 145.827
STARS 22 Nov 04:16:48 04:20:56 40° 67° (ENE) 04:25:05 437.465
Gurwin Techsat 1B 22 Nov 04:24:39 04:27:02 13° 311° (NW) 04:29:25 435.225
DOVE 4 22 Nov 04:29:49 04:34:31 32° 93° (E) 04:39:00 437.250
M-CUBED/EXP-1 PRIME 22 Nov 04:36:49 04:40:27 25° 304° (NW) 04:44:11 437.505
RS-15 22 Nov 04:45:35 04:56:16 42° 251° (WSW) 05:06:28 29.354- 29.394
SO-50 22 Nov 04:51:41 04:56:07 43° 39° (NE) 05:00:34 436.795
AO-85 22 Nov 05:02:31 05:06:27 80° 312° (NW) 05:10:39 145.980
STRAND 1 22 Nov 05:07:50 05:11:42 22° 57° (ENE) 05:15:34 437.568
AO-7 22 Nov 05:11:49 05:19:49 53° 302° (WNW) 05:27:48 .
KAITUO 1B 22 Nov 05:17:01 05:18:36 12° 88° (E) 05:20:10 145.475/437.950
BEESAT 2 22 Nov 05:24:12 05:27:48 30° 325° (NW) 05:31:25 435.950
KKS-1 22 Nov 05:31:57 05:35:22 21° 268° (W) 05:38:47 437.445
XW-2D 22 Nov 05:32:30 05:35:39 24° 94° (E) 05:38:47 145.860 - 145.880
FO-29 22 Nov 05:37:56 05:42:56 21° 46° (NE) 05:48:11 435.910
CUTE-I 22 Nov 05:43:53 05:48:33 29° 94° (E) 05:53:10 437.470
XW-2B 22 Nov 05:47:08 05:50:36 32° 96° (E) 05:54:04 145.730 - 145.750
ITAMSAT 1 22 Nov 05:47:18 05:51:03 20° 305° (NW) 05:54:48 435.822/435.867
YUBILEINY 22 Nov 05:47:22 05:56:08 85° 98° (E) 06:05:01 435.215
BEESAT 3 22 Nov 05:50:52 05:53:08 14° 343° (NNW) 05:55:23 437.485
STARS 22 Nov 05:53:35 05:57:23 28° 265° (W) 06:01:13 437.465
NUDT-PHONESAT 22 Nov 05:59:04 06:02:24 31° 96° (E) 06:05:44 437.300
PCSat 22 Nov 06:01:01 06:04:41 18° 18° (NNE) 06:08:19 145.827
DOVE 4 22 Nov 06:07:20 06:12:19 44° 293° (WNW) 06:17:04 437.250
XW-2C 22 Nov 06:12:36 06:16:23 62° 101° (E) 06:20:10 145.795 - 145.815
LilacSat-2 22 Nov 06:15:28 06:19:18 72° 102° (ESE) 06:23:09 437.200
XW-2F 22 Nov 06:22:37 06:26:25 75° 102° (ESE) 06:30:13 145.980 - 146.000
HO-68 22 Nov 06:25:19 06:31:39 32° 93° (E) 06:37:55 435.675
SO-50 22 Nov 06:32:15 06:36:34 39° 239° (WSW) 06:40:56 436.795
CUTE 1.7 + AOD 2 22 Nov 06:32:36 06:36:19 28° 94° (E) 06:40:01 437.475
AO-85 22 Nov 06:44:24 06:47:32 21° 335° (NNW) 06:50:49 145.980
STRAND 1 22 Nov 06:45:15 06:50:24 72° 257° (WSW) 06:55:34 437.568
KAITUO 1B 22 Nov 06:49:16 06:53:02 70° 286° (WNW) 06:56:47 145.475/437.950
UWE-3 22 Nov 06:56:07 06:58:55 17° 90° (E) 07:01:41 435.000/436.395/437.385
SEEDS 22 Nov 07:01:30 07:05:24 34° 96° (E) 07:09:17 437.485
BEESAT 2 22 Nov 07:04:46 07:06:45 13° 348° (NNW) 07:08:43 435.950
AO-7 22 Nov 07:05:34 07:10:51 19° 326° (NW) 07:16:08 .
XW-2D 22 Nov 07:06:25 07:09:53 34° 292° (WNW) 07:13:22 145.860 - 145.880
AAUSAT CUBESAT 2 22 Nov 07:06:31 07:09:32 19° 90° (E) 07:12:32 437.432
XW-2A 22 Nov 07:10:01 07:12:26 18° 93° (E) 07:14:51 145.665 - 145.685
FO-29 22 Nov 07:19:47 07:26:36 69° 69° (ENE) 07:34:12 435.910
XW-2B 22 Nov 07:21:29 07:24:41 26° 295° (WNW) 07:27:53 145.730 - 145.750
CUTE-I 22 Nov 07:23:39 07:28:51 51° 293° (WNW) 07:34:01 437.470
BEESAT 3 22 Nov 07:30:43 07:32:16 12° 7° (N) 07:33:49 437.485
NUDT-PHONESAT 22 Nov 07:33:03 07:36:10 26° 294° (WNW) 07:39:17 437.300
AO-73 22 Nov 07:34:59 07:38:08 21° 92° (E) 07:41:16 145.935
CUBEBUG 2 22 Nov 07:36:25 07:40:38 70° 102° (ESE) 07:44:45 437.445
PCSat 22 Nov 07:44:18 07:49:30 43° 42° (NE) 07:54:40 145.827
UNISAT 6 22 Nov 07:44:24 07:47:54 22° 61° (ENE) 07:51:21 437.425
YUBILEINY 22 Nov 07:46:48 07:54:08 29° 303° (WNW) 08:01:34 435.215
XW-2C 22 Nov 07:47:51 07:50:08 15° 300° (WNW) 07:52:26 145.795 - 145.815
TIGRISAT 22 Nov 07:48:31 07:52:01 23° 61° (ENE) 07:55:29 435.000
Oscar 11 22 Nov 07:50:25 07:53:47 21° 92° (E) 07:57:07 .
LilacSat-2 22 Nov 07:51:03 07:53:05 14° 301° (WNW) 07:55:08 437.200
XW-2F 22 Nov 07:58:08 08:00:00 13° 301° (WNW) 08:01:53 145.980 - 146.000
CUTE 1.7 + AOD 2 22 Nov 08:08:17 08:12:12 36° 293° (WNW) 08:16:08 437.475
HO-68 22 Nov 08:12:45 08:19:52 65° 294° (WNW) 08:26:56 435.675
ZACube-1 22 Nov 08:19:58 08:24:06 63° 101° (E) 08:28:13 437.345
AO-85 22 Nov 08:27:20 08:29:31 13° 1° (N) 08:31:45 145.980
STRAND 1 22 Nov 08:28:45 08:30:31 12° 276° (W) 08:32:17 437.568
PRISM 22 Nov 08:28:47 08:31:59 22° 61° (ENE) 08:35:12 437.425
UWE-3 22 Nov 08:31:40 08:35:45 56° 289° (WNW) 08:39:48 435.000/436.395/437.385
SEEDS 22 Nov 08:37:18 08:41:01 30° 294° (WNW) 08:44:44 437.485
AAUSAT CUBESAT 2 22 Nov 08:41:11 08:45:18 53° 289° (WNW) 08:49:22 437.432
XW-2A 22 Nov 08:42:10 08:45:16 35° 291° (WNW) 08:48:22 145.665 - 145.685
BEESAT 2 22 Nov 08:44:05 08:46:06 13° 12° (NNE) 08:48:08 435.950
DELFI C3 22 Nov 09:04:06 09:07:31 26° 94° (E) 09:10:53 145.870
CUTE-I 22 Nov 09:06:03 09:07:45 11° 314° (NW) 09:09:26 437.470
FO-29 22 Nov 09:06:17 09:12:15 31° 271° (W) 09:18:48 435.910
BEESAT 3 22 Nov 09:07:55 09:11:10 23° 30° (NNE) 09:14:23 437.485
AO-73 22 Nov 09:10:38 09:14:37 46° 290° (WNW) 09:18:36 145.935
CUBEBUG 2 22 Nov 09:14:10 09:16:46 16° 302° (WNW) 09:19:19 437.445
POLYITAN 1 22 Nov 09:16:39 09:16:57 10° 53° (NE) 09:17:15 437.675
UNISAT 6 22 Nov 09:19:51 09:24:19 54° 260° (W) 09:28:42 437.425
TIGRISAT 22 Nov 09:23:58 09:28:25 54° 260° (W) 09:32:48 435.000
Oscar 11 22 Nov 09:25:59 09:30:10 49° 290° (WNW) 09:34:21 .
PCSat 22 Nov 09:27:49 09:32:58 44° 243° (WSW) 09:38:05 145.827
QB50P2 22 Nov 09:37:19 09:40:02 17° 58° (ENE) 09:42:44 145.880/145.840
EO-88 22 Nov 09:54:51 09:58:23 43° 99° (E) 10:01:52 145.990 - 145.960
ZACube-1 22 Nov 09:57:13 09:59:58 17° 300° (WNW) 10:02:44 437.345
Max Valier Satellite 22 Nov 09:58:32 10:02:12 69° 102° (ESE) 10:05:52 145.860
AIST 2D 22 Nov 09:59:10 10:02:29 47° 72° (ENE) 10:05:52 435.315
HO-68 22 Nov 10:01:37 10:06:22 19° 316° (NW) 10:11:06 435.675
PRISM 22 Nov 10:02:58 10:06:58 48° 260° (W) 10:11:02 437.425
AO-85 22 Nov 10:08:05 10:11:29 21° 25° (NNE) 10:15:04 145.980
LO-87 22 Nov 10:17:50 10:19:17 12° 88° (E) 10:20:45 145.935 - 145.965
BEESAT 2 22 Nov 10:21:22 10:25:02 31° 35° (NE) 10:28:39 435.950
DUCHIFAT 1 22 Nov 10:24:12 10:27:54 31° 65° (ENE) 10:31:36 145.980
EO-79 22 Nov 10:32:18 10:36:21 45° 69° (ENE) 10:40:24 145.935-145.965
NANOSAT C BR1 22 Nov 10:34:57 10:38:57 43° 68° (ENE) 10:42:57 145.865
DELFI C3 22 Nov 10:38:39 10:42:19 35° 293° (WNW) 10:45:58 145.870
BEESAT 3 22 Nov 10:45:09 10:49:08 76° 231° (SW) 10:53:02 437.485
AO-7 22 Nov 10:46:25 10:49:27 12° 21° (NNE) 10:52:30 .
ESTCUBE 1 22 Nov 10:46:34 10:50:07 22° 92° (E) 10:53:39 437.505/2401.250
POLYITAN 1 22 Nov 10:47:43 10:51:55 63° 71° (ENE) 10:56:06 437.675
Gurwin Techsat 1B 22 Nov 10:53:07 10:55:34 13° 49° (NE) 10:58:00 435.225
QB50P2 22 Nov 11:11:06 11:15:20 71° 257° (WSW) 11:19:35 145.880/145.840
BUGSAT 1 22 Nov 11:13:08 11:16:40 27° 64° (ENE) 11:20:11 437.445
EO-88 22 Nov 11:29:08 11:31:45 19° 297° (WNW) 11:34:23 145.990 - 145.960
Max Valier Satellite 22 Nov 11:33:41 11:35:33 14° 301° (WNW) 11:37:25 145.860
AIST 2D 22 Nov 11:33:53 11:35:56 15° 270° (W) 11:38:00 435.315
AO-85 22 Nov 11:48:06 11:52:38 68° 46° (NE) 11:57:32 145.980
LO-87 22 Nov 11:49:35 11:53:06 62° 287° (WNW) 11:56:35 145.935 - 145.965
SPROUT 22 Nov 11:52:33 11:56:06 25° 93° (E) 11:59:36 437.525
Oscar 19 22 Nov 11:56:21 12:01:11 44° 66° (ENE) 12:06:03 437.125/150
BEESAT 2 22 Nov 11:59:00 12:02:56 48° 236° (SW) 12:06:47 435.950
DUCHIFAT 1 22 Nov 11:59:41 12:03:30 33° 263° (W) 12:07:21 145.980
EO-79 22 Nov 12:08:57 12:12:18 23° 267° (W) 12:15:41 145.935-145.965
NANOSAT C BR1 22 Nov 12:11:24 12:14:50 23° 267° (W) 12:18:15 145.865
M-CUBED/EXP-1 PRIME 22 Nov 12:19:18 12:22:07 20° 53° (NE) 12:25:05 437.505
ESTCUBE 1 22 Nov 12:22:48 12:27:13 52° 291° (WNW) 12:31:37 437.505/2401.250
BEESAT 3 22 Nov 12:25:11 12:25:55 10° 250° (WSW) 12:26:39 437.485
POLYITAN 1 22 Nov 12:25:23 12:28:05 16° 270° (W) 12:30:49 437.675
Gurwin Techsat 1B 22 Nov 12:29:17 12:34:31 61° 69° (ENE) 12:39:46 435.225
AO-7 22 Nov 12:32:45 12:39:39 31° 47° (NE) 12:46:35 .
O/OREOS (USA 219) 22 Nov 12:35:56 12:39:34 23° 103° (ESE) 12:43:13 437.305
VELOX 1 22 Nov 12:38:37 12:42:55 45° 99° (E) 12:47:11 145.980
BUGSAT 1 22 Nov 12:48:00 12:51:54 37° 262° (W) 12:55:47 437.445
50 SAT 22 Nov 13:19:05 13:21:55 27° 97° (E) 13:24:43 437.505
DX 1 22 Nov 13:20:57 13:24:51 30° 96° (E) 13:28:44 434.975-435.025
SPROUT 22 Nov 13:28:08 13:32:08 40° 292° (WNW) 13:36:06 437.525
AO-85 22 Nov 13:29:02 13:32:46 24° 244° (WSW) 13:36:40 145.980
Oscar 19 22 Nov 13:36:09 13:40:40 31° 265° (W) 13:45:13 437.125/150
ITAMSAT 1 22 Nov 13:51:16 13:55:59 35° 63° (ENE) 14:00:44 435.822/435.867
M-CUBED/EXP-1 PRIME 22 Nov 13:52:35 13:56:10 51° 255° (WSW) 14:00:03 437.505
YUBILEINY 22 Nov 13:55:19 14:00:43 17° 45° (NE) 14:06:06 435.215
MOZHAYETS 4 22 Nov 13:58:22 13:59:47 11° 85° (E) 14:01:11
UKube-1 22 Nov 14:00:33 14:04:45 47° 99° (E) 14:08:56 .
DOVE 4 22 Nov 14:05:58 14:07:42 12° 49° (NE) 14:09:28 437.250
Gurwin Techsat 1B 22 Nov 14:10:37 14:14:52 24° 269° (W) 14:19:09 435.225
O/OREOS (USA 219) 22 Nov 14:14:09 14:18:40 53° 303° (WNW) 14:23:13 437.305
VELOX 1 22 Nov 14:15:27 14:19:10 26° 298° (WNW) 14:22:50 145.980
AO-7 22 Nov 14:23:17 14:31:36 87° 249° (WSW) 14:39:59 .
NO-84 22 Nov 14:25:05 14:27:30 16° 130° (SE) 14:30:01 435.350 FM
50 SAT 22 Nov 14:51:20 14:53:53 22° 295° (WNW) 14:56:26 437.505
DX 1 22 Nov 14:57:03 15:01:05 36° 294° (WNW) 15:05:04 434.975-435.025
HO-68 22 Nov 15:16:52 15:19:54 13° 35° (NE) 15:22:56 435.675
BEESAT 22 Nov 15:21:07 15:25:44 47° 99° (E) 15:30:19 436.000
ITAMSAT 1 22 Nov 15:30:27 15:35:23 41° 262° (W) 15:40:22 435.822/435.867
ITUPSAT 1 22 Nov 15:31:34 15:36:17 57° 101° (ESE) 15:40:58 437.325
MOZHAYETS 4 22 Nov 15:33:06 15:37:42 81° 102° (ESE) 15:42:17
CUTE-I 22 Nov 15:33:32 15:36:41 16° 51° (NE) 15:39:51 437.470
UKube-1 22 Nov 15:37:03 15:40:33 24° 299° (WNW) 15:44:01 .
DOVE 4 22 Nov 15:39:14 15:44:13 53° 69° (ENE) 15:49:23 437.250
CUBESAT XI-V 22 Nov 15:47:50 15:52:03 32° 95° (E) 15:56:15 437.345
YUBILEINY 22 Nov 15:51:13 15:59:56 57° 72° (ENE) 16:08:37 435.215
O/OREOS (USA 219) 22 Nov 15:57:02 15:59:10 13° 325° (NW) 16:01:19 437.305
NO-84 22 Nov 16:00:24 16:04:13 72° 150° (SSE) 16:08:18 435.350 FM
KAITUO 1B 22 Nov 16:01:56 16:03:42 13° 59° (ENE) 16:05:29 145.475/437.950
XW-2D 22 Nov 16:18:27 16:21:32 25° 65° (ENE) 16:24:38 145.860 - 145.880
AO-7 22 Nov 16:19:14 16:25:32 23° 271° (W) 16:31:53 .
XW-2B 22 Nov 16:32:59 16:36:20 33° 68° (ENE) 16:39:44 145.730 - 145.750
NUDT-PHONESAT 22 Nov 16:42:41 16:45:53 29° 67° (ENE) 16:49:07 437.300
XW-2C 22 Nov 16:58:16 17:01:57 62° 73° (ENE) 17:05:41 145.795 - 145.815
HO-68 22 Nov 16:59:12 17:05:50 42° 58° (ENE) 17:12:29 435.675
BEESAT 22 Nov 16:59:18 17:03:18 28° 299° (WNW) 17:07:18 436.000
LilacSat-2 22 Nov 17:01:46 17:05:31 73° 73° (ENE) 17:09:18 437.200
RS-15 22 Nov 17:04:19 17:13:36 26° 100° (E) 17:22:49 29.354- 29.394
CUBEBUG 2 22 Nov 17:04:24 17:07:13 17° 58° (ENE) 17:09:58 437.445
XW-2F 22 Nov 17:07:46 17:11:28 74° 75° (ENE) 17:15:13 145.980 - 146.000
ITUPSAT 1 22 Nov 17:10:01 17:13:47 24° 301° (WNW) 17:17:32 437.325
CUTE-I 22 Nov 17:10:31 17:15:53 74° 71° (ENE) 17:21:17 437.470
MOZHAYETS 4 22 Nov 17:11:24 17:14:18 17° 303° (WNW) 17:17:10
KKS-1 22 Nov 17:16:09 17:20:33 52° 100° (E) 17:24:54 437.445
DOVE 4 22 Nov 17:17:51 17:22:11 27° 269° (W) 17:26:39 437.250
CUBESAT XI-V 22 Nov 17:25:09 17:29:28 38° 294° (WNW) 17:33:48 437.345
CUTE 1.7 + AOD 2 22 Nov 17:29:48 17:33:40 37° 67° (ENE) 17:37:34 437.475
KAITUO 1B 22 Nov 17:33:30 17:37:10 73° 257° (WSW) 17:40:54 145.475/437.950
STARS 22 Nov 17:36:55 17:41:01 36° 97° (E) 17:45:03 437.465
NO-84 22 Nov 17:37:52 17:41:46 51° 352° (N) 17:45:52 435.350 FM
XW-2A 22 Nov 17:46:18 17:48:17 15° 62° (ENE) 17:50:17 145.665 - 145.685
ZACube-1 22 Nov 17:46:43 17:48:49 14° 57° (ENE) 17:50:55 437.345
YUBILEINY 22 Nov 17:48:27 17:56:31 42° 275° (W) 18:04:33 435.215
XW-2D 22 Nov 17:52:11 17:55:35 33° 263° (W) 17:59:02 145.860 - 145.880
UWE-3 22 Nov 17:57:25 18:01:08 28° 65° (ENE) 18:04:47 435.000/436.395/437.385
SEEDS 22 Nov 17:57:38 18:01:35 44° 69° (ENE) 18:05:36 437.485
AAUSAT CUBESAT 2 22 Nov 18:01:11 18:04:31 24° 63° (ENE) 18:07:53 437.432
XW-2B 22 Nov 18:07:28 18:10:35 24° 266° (W) 18:13:42 145.730 - 145.750
NUDT-PHONESAT 22 Nov 18:16:39 18:19:44 26° 265° (W) 18:22:52 437.300
XW-2C 22 Nov 18:34:38 18:36:32 13° 271° (W) 18:38:28 145.795 - 145.815
AO-73 22 Nov 18:34:56 18:38:39 31° 66° (ENE) 18:42:21 145.935
CUBEBUG 2 22 Nov 18:38:46 18:43:20 78° 258° (WSW) 18:47:45 437.445
LilacSat-2 22 Nov 18:38:53 18:40:17 12° 273° (W) 18:41:42 437.200
XW-2F 22 Nov 18:44:50 18:46:05 11° 273° (W) 18:47:20 145.980 - 146.000
HO-68 22 Nov 18:46:26 18:53:26 53° 259° (W) 19:00:30 435.675
Oscar 11 22 Nov 18:49:46 18:53:32 31° 65° (ENE) 18:57:20 .
STRAND 1 22 Nov 18:50:53 18:55:13 27° 93° (E) 18:59:31 437.568
CUTE-I 22 Nov 18:52:39 18:56:30 20° 271° (W) 19:00:24 437.470
KKS-1 22 Nov 18:53:17 18:56:49 23° 300° (WNW) 19:00:20 437.445
CUTE 1.7 + AOD 2 22 Nov 19:06:00 19:09:36 27° 267° (W) 19:13:12 437.475
RS-15 22 Nov 19:11:55 19:24:14 78° 125° (SE) 19:36:23 29.354- 29.394
STARS 22 Nov 19:13:24 19:17:16 30° 296° (WNW) 19:21:06 437.465
NO-84 22 Nov 19:15:31 19:19:35 55° 13° (NNE) 19:23:47 435.350 FM
XW-2A 22 Nov 19:17:27 19:20:39 46° 260° (W) 19:23:54 145.665 - 145.685
ZACube-1 22 Nov 19:20:12 19:24:31 89° 282° (WNW) 19:28:45 437.345
UWE-3 22 Nov 19:33:20 19:37:28 39° 263° (W) 19:41:32 435.000/436.395/437.385
SEEDS 22 Nov 19:34:10 19:37:28 22° 268° (W) 19:40:49 437.485
AAUSAT CUBESAT 2 22 Nov 19:35:50 19:39:46 42° 262° (W) 19:43:45 437.432
DELFI C3 22 Nov 19:53:51 19:57:19 30° 66° (ENE) 20:00:50 145.870
FO-29 22 Nov 20:08:40 20:16:10 45° 94° (E) 20:23:18 435.910
AO-73 22 Nov 20:11:00 20:14:52 33° 264° (W) 20:18:41 145.935
ISS 22 Nov 20:18:25 20:20:15 14° 140° (SE) 20:22:06 437.550
CUBEBUG 2 22 Nov 20:19:41 20:20:39 11° 275° (W) 20:21:36 437.445
Oscar 11 22 Nov 20:25:43 20:29:38 34° 264° (W) 20:33:35 .
STRAND 1 22 Nov 20:29:42 20:34:40 51° 293° (WNW) 20:39:36 437.568
EO-88 22 Nov 20:36:54 20:40:19 40° 70° (ENE) 20:43:44 145.990 - 145.960
HO-68 22 Nov 20:41:27 20:42:55 11° 281° (W) 20:44:23 435.675
Max Valier Satellite 22 Nov 20:41:40 20:45:17 63° 73° (ENE) 20:48:55 145.860
SO-50 22 Nov 20:51:59 20:55:10 19° 114° (ESE) 20:58:23 436.795
NO-84 22 Nov 20:52:54 20:57:04 62° 212° (SSW) 21:01:17 435.350 FM
LO-87 22 Nov 20:58:47 21:00:23 13° 59° (ENE) 21:01:58 145.935 - 145.965
ZACube-1 22 Nov 21:00:02 21:01:25 11° 274° (W) 21:02:48 437.345
O/OREOS (USA 219) 22 Nov 21:01:02 21:04:28 20° 43° (NE) 21:07:52 437.305
nSIGHT-1 22 Nov 21:04:36 21:07:31 32° 151° (SSE) 21:10:27 .
UNISAT 6 22 Nov 21:06:45 21:10:03 21° 92° (E) 21:13:19 437.425
TIGRISAT 22 Nov 21:10:42 21:14:00 21° 92° (E) 21:17:15 435.000
RS-15 22 Nov 21:25:43 21:37:45 53° 333° (NNW) 21:49:30 29.354- 29.394
DELFI C3 22 Nov 21:28:30 21:32:02 30° 265° (W) 21:35:37 145.870
PRISM 22 Nov 21:39:46 21:42:28 16° 90° (E) 21:45:07 437.425
ESTCUBE 1 22 Nov 21:50:36 21:54:40 36° 66° (ENE) 21:58:49 437.505/2401.250
ISS 22 Nov 21:53:00 21:56:13 54° 158° (SSE) 21:59:25 437.550
FO-29 22 Nov 21:53:42 22:01:19 53° 296° (WNW) 22:08:36 435.910
VELOX 1 22 Nov 22:07:07 22:09:01 13° 53° (NE) 22:10:55 145.980
EO-88 22 Nov 22:11:30 22:14:08 19° 268° (W) 22:16:46 145.990 - 145.960
STRAND 1 22 Nov 22:11:30 22:12:45 11° 313° (NW) 22:13:58 437.568
Max Valier Satellite 22 Nov 22:17:51 22:19:31 13° 271° (W) 22:21:10 145.860
LO-87 22 Nov 22:29:40 22:33:16 73° 258° (WSW) 22:36:53 145.935 - 145.965
SO-50 22 Nov 22:30:39 22:35:08 74° 313° (NW) 22:39:41 436.795
NO-84 22 Nov 22:31:17 22:33:48 15° 231° (SW) 22:36:19 435.350 FM
PCSat 22 Nov 22:35:52 22:36:49 10° 101° (E) 22:37:46 145.827
O/OREOS (USA 219) 22 Nov 22:39:51 22:44:27 78° 245° (WSW) 22:48:58 437.305
nSIGHT-1 22 Nov 22:40:21 22:43:34 89° 330° (NNW) 22:46:47 .
UNISAT 6 22 Nov 22:42:54 22:47:03 48° 291° (WNW) 22:51:08 437.425
TIGRISAT 22 Nov 22:46:50 22:50:58 47° 291° (WNW) 22:55:02 435.000
SPROUT 22 Nov 22:50:13 22:54:09 36° 66° (ENE) 22:58:05 437.525
AIST 2D 22 Nov 22:51:56 22:55:03 29° 95° (E) 22:58:10 435.315
QB50P2 22 Nov 22:52:08 22:54:15 13° 88° (E) 22:56:21 145.880/145.840
PRISM 22 Nov 23:13:59 23:18:07 62° 289° (WNW) 23:22:13 437.425
UKube-1 22 Nov 23:26:37 23:28:26 12° 53° (NE) 23:30:16 .
ESTCUBE 1 22 Nov 23:27:33 23:31:32 31° 265° (W) 23:35:34 437.505/2401.250
ISS 22 Nov 23:29:22 23:32:39 78° 358° (N) 23:35:56 437.550
DUCHIFAT 1 22 Nov 23:38:10 23:41:42 26° 94° (E) 23:45:13 145.980
FO-29 22 Nov 23:40:00 23:44:41 17° 318° (NW) 23:49:19 435.910
VELOX 1 22 Nov 23:40:15 23:44:41 74° 73° (ENE) 23:49:10 145.980
RS-15 22 Nov 23:41:50 23:53:22 43° 6° (N) 00:04:25 29.354- 29.394
EO-79 22 Nov 23:47:12 23:51:12 40° 98° (E) 23:55:09 145.935-145.965
NANOSAT C BR1 22 Nov 23:49:25 23:53:20 38° 97° (E) 23:57:14 145.865
50 SAT 22 Nov 23:50:51 23:53:24 22° 65° (ENE) 23:55:57 437.505
POLYITAN 1 23 Nov 00:02:53 00:07:03 57° 101° (E) 00:11:10 437.675
SO-50 23 Nov 00:12:45 00:16:19 22° 336° (NNW) 00:19:56 436.795
PCSat 23 Nov 00:13:47 00:19:05 59° 121° (ESE) 00:24:27 145.827
nSIGHT-1 23 Nov 00:16:39 00:19:52 87° 11° (NNE) 00:23:05 .
DX 1 23 Nov 00:20:52 00:25:05 50° 69° (ENE) 00:29:22 434.975-435.025
O/OREOS (USA 219) 23 Nov 00:21:51 00:23:01 11° 264° (W) 00:24:11 437.305
BUGSAT 1 23 Nov 00:24:43 00:27:50 21° 92° (E) 00:30:54 437.445
AIST 2D 23 Nov 00:25:12 00:28:09 25° 294° (WNW) 00:31:05 435.315
QB50P2 23 Nov 00:26:21 00:30:34 76° 286° (WNW) 00:34:46 145.880/145.840
SPROUT 23 Nov 00:26:22 00:30:05 28° 265° (W) 00:33:50 437.525
Gurwin Techsat 1B 23 Nov 00:41:22 00:44:38 16° 87° (E) 00:47:52 435.225
BEESAT 23 Nov 00:56:46 00:59:50 17° 55° (NE) 01:02:53 436.000
UKube-1 23 Nov 00:59:25 01:03:43 77° 72° (ENE) 01:08:04 .
MOZHAYETS 4 23 Nov 01:04:04 01:07:29 21° 60° (ENE) 01:10:54
ISS 23 Nov 01:05:54 01:09:10 70° 197° (SSW) 01:12:25 437.550
ITUPSAT 1 23 Nov 01:07:06 01:10:32 20° 57° (ENE) 01:13:59 437.325
DUCHIFAT 1 23 Nov 01:13:36 01:17:28 37° 293° (WNW) 01:21:18 145.980
VELOX 1 23 Nov 01:19:02 01:21:39 15° 271° (W) 01:24:17 145.980
50 SAT 23 Nov 01:22:31 01:25:22 28° 263° (W) 01:28:14 437.505
EO-79 23 Nov 01:23:19 01:26:47 26° 297° (WNW) 01:30:15 145.935-145.965
NANOSAT C BR1 23 Nov 01:25:23 01:28:55 27° 296° (WNW) 01:32:26 145.865
POLYITAN 1 23 Nov 01:39:27 01:42:28 19° 300° (WNW) 01:45:26 437.675
Oscar 19 23 Nov 01:41:26 01:46:34 63° 102° (ESE) 01:51:41 437.125/150
nSIGHT-1 23 Nov 01:52:59 01:55:55 34° 209° (SSW) 01:58:52 .
SO-50 23 Nov 01:55:42 01:58:22 15° 1° (N) 02:01:02 436.795
RS-15 23 Nov 01:56:15 02:08:21 67° 38° (NE) 02:19:46 29.354- 29.394
PCSat 23 Nov 01:57:51 02:02:48 35° 322° (NW) 02:07:48 145.827
DX 1 23 Nov 01:58:10 02:01:33 22° 268° (W) 02:04:58 434.975-435.025
BUGSAT 1 23 Nov 01:59:32 02:03:24 44° 291° (WNW) 02:07:13 437.445
QB50P2 23 Nov 02:04:07 02:05:38 12° 306° (NW) 02:07:09 145.880/145.840
BEESAT 3 23 Nov 02:16:01 02:19:37 33° 120° (ESE) 02:23:14 437.485
AO-7 23 Nov 02:19:52 02:26:09 23° 89° (E) 02:32:24 .
Gurwin Techsat 1B 23 Nov 02:19:56 02:25:19 88° 288° (WNW) 02:30:39 435.225
